Вернуться в каталог

FENGYUN 1C DEB

АктивенSSO
NORAD 33605·DEBRIS·🇨🇳 China

Запущен May 10, 1999 с Taiyuan Satellite Launch Center

Loading…

Ближайшие Пролёты (ближайшие 24 часа)

TLE

УстаревающийSource: Space-Track

Эпоха: Sep 9, 2026, 18:23 UTC

1 33605U 99025DCN 26252.76618074  .00000403  00000-0  25699-3 0  9999
2 33605  98.7109 247.1755 0056993  30.3531 144.4795 14.08220501636328

Отслеживайте FENGYUN 1C DEB в реальном времени с AllMySat

Download on the App Store